Location: Laas
(43.4693°N, 0.3073°E)
Time: 15:03:48
(UTC+00:00)

Cosmos 1606 Rocket - Pass Details

Date: 25 October 2020
Orbit: 604 x 631 km, 82.5° (Epoch: 23 November)

Event Time Altitude Azimuth Distance (km) Brightness Sun altitude
Rises 18:08:51 0° 196° (SSW) 2,856 7.3 -13.2°
Reaches altitude 10° 18:11:04 10° 200° (SSW) 1,961 6.4 -13.6°
Maximum altitude 18:15:22 60° 280° (W) 708 4.1 -14.4°
Drops below altitude 10° 18:19:43 10° 1° (N) 1,993 6.1 -15.2°
Sets 18:22:00 0° 5° (N) 2,909 6.9 -15.6°
